Showing default

ION SCV-008, 55051

Orbit data source: Space-Track

ION SCV-008, 55051 is a payload satellite owned by D-ORBIT (IT) in SSO that was launched on Tue, 03 Jan 2023 UTC via an FALCON 9 launch vehicle from the Air Force Eastern Test Range (AFETR). Payload-class satellites include a variety of spacecraft equipped with specific instruments for various scientific and technological missions. These include communications satellites like Starlink; space stations such as the ISS; scientific satellites like the Hubble; Earth observation satellites from companies like Planet Labs, Umbra, and HawkEye 360; GPS; miniature CubeSats for education and research; and military/defense satellites.

Loading next visibility...
Identifier
55051, 2023-001AU
Orbit
SSO
Country
Flag of ITIT
Related business
Manufacturer
D-ORBIT
Mission
Operational Commercial Technology
Bus & Motor
ION-SC, PM200
Mass
220 kg wet, 150 kg dry
Launch date (UTC)
2023-01-03 (3 years ago)
Launch vehicle
FALCON 9
Launch site
Air Force Eastern Test Range (AFETR)
Object type
Payload
Rocket body
Debris
Shape & HBR
Box, 0.2 m
Radar Cross Section
0.240 m², Medium (>0.1 m² and < 1m²)

Expand to show TLE details & history
Last TLE update: 16 hours ago

TLE from 16 hours ago
0 ION SCV-008
1 55051U 23001AU  25286.66509934  .00011630  00000-0  47540-3 0  9991
2 55051  97.5792  14.5250 0016946 156.2980 203.9041 15.24391639153721
Epoch: 2025-10-13T15:57Z
TLE epoch observation values (Epoch: 2025-10-13T15:57:44.582Z)
Latitude
-0.00008°
Longitude
112.62463°
Altitude
506.354 km
Speed
7.605 km/s
True Right ascension
00h 58m 06s
True Declination
0° 00' 00"
Sunlit
Object was in full shadow at epoch
Visualization orbit readout
Latitude
Unknown
Longitude
Unknown
Altitude
Unknown
Speed
Unknown
Apparent Right ascension
Unknown
Apparent Declination
Unknown
Sunlit
N/A
Visualization observer readout
Local Sidereal Time
02:52:10
Azimuth
Unknown
Elevation
Unknown
Doppler factor
Unknown
Orbital elements
Apogee altitude
501.218 km
Perigee altitude
477.942 km
Semi-major axis
6,867.717 km
Eccentricity
0.00169
Inclination
97.5792°
RAAN
14.525°
Arg. of periapsis
156.298°
True anomaly
203.82557°
Mean anomaly
203.9041°
Eccentric anomaly
203.86482°
Mean motion
3.81351 °/min
Orbital period
94.4 mins
BSTAR
0.0004754
Loading maneuver chart data...
Computing Atmospheric mass density...
Loading historical data...
Loading historical data...
Loading historical data...
Loading historical data...
Loading historical data...
Loading historical data...
Loading historical data...

Documentation

Showing up to 5 results
|